Location: Banios
(43.0451°N, 0.2335°E)
Time: 12:55:50
(UTC+00:00)

A-11 Canister half - Pass Details

Date: 11 May 2021
Orbit: 1513 x 1686 km, 47.2° (Epoch: 14 June)

Event Time Altitude Azimuth Distance (km) Brightness Sun altitude
Rises 18:16:06 0° 278° (W) 4,655 13.7 8.6°
Reaches altitude 10° 18:19:10 10° 281° (W) 3,674 13.8 8.1°
Maximum altitude 18:28:23 69° 4° (N) 1,618 9.4 6.5°
Drops below altitude 10° 18:37:49 10° 88° (E) 3,751 10.5 4.8°
Sets 18:40:58 0° 91° (E) 4,756 11.0 4.3°
